Hourly Data Report for July 02, 2022

ALGONQUIN PARK EAST GATE
ONTARIO
Current Station Operator: ECCC - MSC

45°32'00.000" N
78°16'00.000" W
397.00 m
6080192
71581
TNK

Download Data

Hourly Data (July 2022)
Hourly Data Report for July 2, 2022
TIME
LST
Temp Definition
°C
Dew Point Definition
°C
Rel Hum Definition
%
Precip. Amount Definition
mm

Wind Dir Definition
10's deg

Wind Spd Definition
km/h
Visibility Definition
km
Stn Press Definition
kPa
Hmdx Definition


Wind Chill Definition


Weather Definition


00:00 14.1 10.1 77 0.0 26 5   96.34     LegendNANA
01:00 11.9 9.7 86 0.0 24 1   96.37     LegendNANA
02:00 10.5 8.6 88 0.0 10 3   96.37     LegendNANA
03:00 8.8 7.7 93 0.0   0   96.38     LegendNANA
04:00 7.9 7.2 96 0.0   0   96.43     LegendNANA
05:00 7.1 6.4 96 0.0   0   96.49     LegendNANA
06:00 8.5 8.0 97 0.0   0   96.51     LegendNANA
07:00 14.5 10.2 76 0.0 24 2   96.52     LegendNANA
08:00 17.5 9.9 61 0.0 26 4   96.52     LegendNANA
09:00 17.7 8.9 56 0.0 25 6   96.51     LegendNANA
10:00 19.4 8.6 50 0.0 27 11   96.47     LegendNANA
11:00 21.8 12.1 54 0.0 26 9   96.46     LegendNANA
12:00 22.2 8.7 42 0.0 26 12   96.44     LegendNANA
13:00 21.9 8.9 43 0.0 27 10   96.45     LegendNANA
14:00 22.8 7.6 38 0.0 27 11   96.49     LegendNANA
15:00 23.1 5.8 33 0.0 27 11   96.48     LegendNANA
16:00 22.9 6.8 35 0.0 26 10   96.50     LegendNANA
17:00 21.6 3.9 31 0.0 30 8   96.53     LegendNANA
18:00 20.3 7.2 43 0.0 27 9   96.54     LegendNANA
19:00 18.4 7.7 50 0.0 26 7   96.57     LegendNANA
20:00 16.1 7.5 57 0.0 25 4   96.62     LegendNANA
21:00 14.5 7.6 63 0.0 26 4   96.67     LegendNANA
22:00 12.0 7.2 73 0.0   0   96.73     LegendNANA
23:00 10.3 7.1 81 0.0   0   96.74     LegendNANA

Notes on Data Quality.

Legend

  • E = Estimated
  • M = Missing
  • NA = Not Available*
  • [empty] = Indicates an unobserved value
Date modified: